Regional Weather Roundup
Issued by NWS Sterling, VA

Home | Current Version | Previous Version | Graphics & Text | Print | Product List | Glossary On
Versions: 1 2 3 4 5 6 7 8 9 10 11 12 13 14 15 16 17 18 19 20 21 22 23 24 25 26 27 28 29 30 31 32 33 34 35 36 37 38 39 40 41 42 43 44 45 46 47 48 49 50
000
ASUS41 KLWX 241210
RWRLWX

REGIONAL WEATHER ROUNDUP
NATIONAL WEATHER SERVICE BALTIMORE MD/WASHINGTON DC
800 AM EDT FRI MAR 24 2017

Note: "FAIR" indicates few or no clouds below 12,000 feet
with no significant weather and/or obstructions to visibility.
 TC=TEMPERATURE CELSIUS

 * =Non NWS site. Station does not report precipitation (e.g. rain,
    snow, etc.), thunder, or fog.

DCZ001-MDZ009-015-VAZ040>042-051-053>054-241300-
WASHINGTON METRO

CITY           SKY/WX    TMP DP  RH WIND       PRES   REMARKS
WASHINGTON NAT CLOUDY    38  25  59 S12       30.48R
DULLES         MOCLDY    36  25  64 S8        30.44R
ANDREWS AFB    CLOUDY    36  21  55 S12       30.46R WCI  28
FT BELVOIR     CLOUDY    37  25  63 S9        30.48R
QUANTICO       CLOUDY    38  30  73 SW15      30.50R
COLLEGE PARK*  CLOUDY    36  23  60 S5        30.47S
LEESBURG*      CLOUDY    36  28  75 S8        30.45R
MANASSAS*      CLOUDY    37  27  67 S9        30.46R
GAITHERSBURG*  MOCLDY    36  23  60 S7        30.47S

$$

MDZ006>007-011-014-241300-
BALTIMORE METRO

CITY           SKY/WX    TMP DP  RH WIND       PRES   REMARKS
BWI AIRPORT    CLOUDY    35  23  61 S6        30.46R
MD SCIENCE CTR   N/A     38  22  52 MISG      30.47R
MARTIN STATE   CLOUDY    39  27  60 S7        30.48R
ANNAPOLIS      CLOUDY    39  22  50 SW10      30.48R
FORT MEADE*    PTSUNNY   32  27  80 S5        30.49R

$$

MDZ012-015-019>023-241300-
MARYLAND EASTERN SHORE

CITY           SKY/WX    TMP DP  RH WIND       PRES   REMARKS
OCEAN CITY     CLOUDY    41  30  65 SW6       30.53R
SALISBURY      PTSUNNY   32  27  81 S6        30.51F
BAY BRIDGE AP* MOSUNNY   39  25  56 SW15G22   30.48R
CAMBRIDGE*     SUNNY     41  34  75 S8        30.50R

$$

MDZ017>025-241300-
SOUTHERN MARYLAND

CITY           SKY/WX    TMP DP  RH WIND       PRES   REMARKS
PATUXENT RIVER PTSUNNY   37  29  72 S9        30.50S
ST INIGOES     CLOUDY    38  27  64 S9        30.50S
LEONARDTOWN*   CLOUDY    36  27  69 S5        30.51S

$$

MDZ003>005-241300-
NORTH CENTRAL MARYLAND

CITY           SKY/WX    TMP DP  RH WIND       PRES   REMARKS
FREDERICK*     CLOUDY    39  30  70 SW13      30.47R
HAGERSTOWN APT CLOUDY    38  22  52 S7        30.39R
WESTMINSTER*   CLOUDY    36  27  69 S10       30.40S WCI  28

$$

MDZ501>502-241300-
WESTERN MARYLAND

CITY           SKY/WX    TMP DP  RH WIND       PRES   REMARKS
OAKLAND*       CLOUDY    39  36  87 SW8       30.30R
CUMBERLAND*    CLOUDY    32  32 100 CALM      30.41R

$$

VAZ025>031-241300-
SHENANDOAH VALLEY

CITY           SKY/WX    TMP DP  RH WIND       PRES   REMARKS
WINCHESTER*    LGT RAIN  36  25  64 CALM      30.40R
FRONT ROYAL*     N/A    N/A N/A N/A MISG        N/A
LURAY*         LGT RAIN  43  28  56 SW6       30.37S
NEW MARKET*    CLOUDY    42  27  55 SW6       30.38R
STAUNTON*      DRIZZLE   39  25  57 CALM      30.39F
WAYNESBORO*    CLOUDY    38  27  64 CALM      30.37F

$$

WVZ021-048>050-054>055-241300-
EASTERN WEST VIRGINIA PANHANDLE

CITY           SKY/WX    TMP DP  RH WIND       PRES   REMARKS
MARTINSBURG    LGT RAIN  34  24  67 CALM      30.39R
PETERSBURG*    CLOUDY    45  31  58 CALM      30.37R

$$

VAZ036>039-050-241300-
CENTRAL FOOTHILLS

CITY           SKY/WX    TMP DP  RH WIND       PRES   REMARKS
CHARLOTTESVILL MOCLDY    39  24  55 S12       30.43R
CULPEPER*      CLOUDY    38  28  67 S8        30.46R
ORANGE*        CLOUDY    36  27  69 S8        30.46S
GORDONSVILLE*  CLOUDY    34  25  71 SW3       30.45S
WARRENTON*     CLOUDY    38  25  58 S9        30.45R

$$

VAZ055>057-241300-
NORTH AND CENTRAL PIEDMONT

CITY           SKY/WX    TMP DP  RH WIND       PRES   REMARKS
FREDERICKSBRG* CLOUDY    34  28  78 S5        30.50R
STAFFORD*      MOCLDY    33  26  77 S6        30.52R

$$

NCZ024-NYZ072-PAZ021-071-VAZ022-071-241300-
OTHER REGIONAL OBSERVATIONS

CITY           SKY/WX    TMP DP  RH WIND       PRES   REMARKS
NEW YORK CITY  CLOUDY    38  21  50 VRB6G18   30.48F
PHILADELPHIA   PTSUNNY   33  24  69 SW6       30.48F
PITTSBURGH     CLOUDY    43  38  82 S10       30.21F
ROANOKE        CLOUDY    40  24  53 SE6       30.45S
RICHMOND       CLOUDY    35  27  72 S8        30.50S WCI  29
RALEIGH        PTCLDY    38  29  70 S3        30.52S

$$

ANZ530>537-241300-
MARINE OBSERVATIONS

STATION/POSITION TIME  TEMP    WIND        PRES
                       AIR SEA DIR/SP/G
                 (UTC) (F)     (DEG/KT/KT) (MB)
THOMAS PT LIGHT  1200   39 43  200/ 21/ 23   N/A
BALT KEY BRIDGE  1142   37     200/  8/ 10 1031.7R
COVE POINT       1142   37     210/ 14/ 18 1033.0F
LEWISETTA        1142   37 45  220/ 13/ 15 1032.4F
SOLOMONS ISLAND  1142   38 44  200/ 10/ 12   N/A
PINEY POINT      1148          210/  9/ 10   N/A

$$




USA.gov is the U.S. government's official web portal to all federal, state and local government web resources and services.